Regional Weather Roundup
Issued by NWS Northern Indiana

Home | Current Version | Previous Version | Graphics & Text | Print | Product List | Glossary On
Versions: 1 2 3 4 5 6 7 8 9 10 11 12 13 14 15 16 17 18 19 20 21 22 23 24 25 26 27 28 29 30 31 32 33 34 35 36 37 38 39 40 41 42 43 44 45 46 47 48 49 50
000
ASUS43 KIWX 300600
RWRIWX

KIWX WEATHER ROUNDUP
NATIONAL WEATHER SERVICE NORTHERN INDIANA
200 AM EDT THU MAR 30 2017

NOTE: "FAIR" INDICATES FEW OR NO CLOUDS BELOW 12,000 FEET WITH NO
SIGNIFICANT WEATHER AND/OR OBSTRUCTIONS TO VISIBILITY.

* THESE STATIONS ARE NOT UNDER NWS QUALITY CONTROL. THEY ALSO MAY NOT
  REPORT WEATHER SUCH AS PRECIPITATION OR FOG.

INZ001>027-300700-
NORTHERN INDIANA

CITY           SKY/WX    TMP DP  RH WIND       PRES   REMARKS
KNOX*          CLOUDY    45  19  36 E23G31    29.96F
SOUTH BEND     CLOUDY    46  35  65 E14       30.00F
6HR MIN TEMP:  46; 6HR MAX TEMP:  51; 6HR PCP:  0.02;

GOSHEN         CLOUDY    46  34  62 E20G25    30.03F
6HR MIN TEMP:  46; 6HR MAX TEMP:  50; 6HR PCP: TRACE;

MONTICELLO*    MOCLDY    46  37  71 E13G20    29.92F
6HR MIN TEMP:  46; 6HR MAX TEMP:  54; 6HR PCP:  0.02;

ANGOLA*        CLOUDY    43  30  61 E13       30.07S
FORT WAYNE     RAIN      43  37  79 E16       30.05F
6HR MIN TEMP:  43; 6HR MAX TEMP:  50; 6HR PCP:  0.10;

PERU/GRISSOM   CLOUDY    44  39  81 E23G30    29.94F
6HR MIN TEMP:  44; 6HR MAX TEMP:  54; 6HR PCP:  0.07;


$$
INZ028>050-300700-
CENTRAL INDIANA

CITY           SKY/WX    TMP DP  RH WIND       PRES   REMARKS
LAFAYETTE      LGT RAIN  47  42  83 E20       29.89F
6HR MIN TEMP:  47; 6HR MAX TEMP:  55; 6HR PCP:  0.05;

KOKOMO*        CLOUDY    45  38  76 E18       29.96F
6HR MIN TEMP:  45; 6HR MAX TEMP:  53; 6HR PCP:  0.01;

MUNCIE*        LGT RAIN  49  40  71 E13       29.97F
6HR MIN TEMP:  49; 6HR MAX TEMP:  55; 6HR PCP: TRACE;

INDIANAPOLIS   CLOUDY    55  42  61 E14       29.90F
6HR MIN TEMP:  54; 6HR MAX TEMP:  58;


$$
MIZ043>046-050>051-056>058-064>065-071>073-077>080-300700-
SOUTHWEST LOWER MICHIGAN

CITY           SKY/WX    TMP DP  RH WIND       PRES   REMARKS
BATTLE CREEK   CLOUDY    42  38  85 E9        30.10F
6HR MIN TEMP:  42; 6HR MAX TEMP:  51; 6HR PCP:  0.04;

BENTON HARBOR  CLOUDY    45  38  76 E15G22    30.02F
6HR MIN TEMP:  45; 6HR MAX TEMP:  53; 6HR PCP:  0.04;

COLDWATER*     CLOUDY    44  32  62 E13       30.08F
6HR MIN TEMP:  44; 6HR MAX TEMP:  51;

HILLSDALE*     CLOUDY    41  32  70 E10G18    30.10R
HOLLAND        LGT RAIN  39  34  82 E16G24    30.09F
6HR MIN TEMP:  39; 6HR MAX TEMP:  51; 6HR PCP:  0.08;

GRAND RAPIDS   CLOUDY    36  35  96 E16       30.12F
6HR MIN TEMP:  36; 6HR MAX TEMP:  46; 6HR PCP:  0.08;

KALAMAZOO      CLOUDY    43  36  76 E10G16    30.08F
6HR MIN TEMP:  43; 6HR MAX TEMP:  52; 6HR PCP:  0.02;

STURGIS*       CLOUDY    44  33  64 E14G21    30.06F
6HR MIN TEMP:  44; 6HR MAX TEMP:  50;

THREE RIVERS*  CLOUDY    45  32  60 E13G21    30.07F

$$
OHZ001>008-015>018-024>025-300700-
NORTHWEST OHIO

CITY           SKY/WX    TMP DP  RH WIND       PRES   REMARKS
DEFIANCE       CLOUDY    46  32  58 E10       30.09F
6HR MIN TEMP:  45; 6HR MAX TEMP:  47; 6HR PCP: TRACE;

FINDLAY        CLOUDY    47  31  53 NE15      30.07F
6HR MIN TEMP:  46; 6HR MAX TEMP:  49;

TOLEDO EXPRESS CLOUDY    43  33  68 E13       30.11F
6HR MIN TEMP:  43; 6HR MAX TEMP:  48;

TOLEDO METCALF CLOUDY    43  36  76 NE12      30.14F
6HR MIN TEMP:  43; 6HR MAX TEMP:  47;

LIMA           CLOUDY    46  34  62 NE14      30.04F
6HR MIN TEMP:  45; 6HR MAX TEMP:  48;


$$
AND FOR LAKE MICHIGAN COASTAL AND OPEN LAKE BUOY OBSERVATIONS

STATION/POSITION TEMP    WIND        PRES    VSBY  WAVE
                 AIR SEA DIR/SP/G                  HT/PER
                 (F)     (DEG/KT/KT) (MB)    (MI)  (FT/S)
CALUMET HARBOR    42      30/ 13/ 20 1014.3F
MICHIGAN CITY     47      60/ 20/ 22   N/A
BURNS HARBOR      48      90/ 17/ 23 1014.6F

$$
&&




USA.gov is the U.S. government's official web portal to all federal, state and local government web resources and services.